Location: Ottawa
(45.4167°N, 75.7000°W)
Time: 02:43:12
(UTC-05:00)

Envisat - Pass Details

Date: 13 October 2017
Orbit: 764 x 766 km, 98.2° (Epoch: 10 December)

Event Time Altitude Azimuth Distance (km) Brightness Sun altitude
Exits shadow 20:56:55 75° 251° (WSW) 797 3.0 -28.0°
Maximum altitude 20:56:59 75° 257° (WSW) 797 3.0 -28.0°
Drops below altitude 10° 21:02:05 10° 343° (NNW) 2,316 5.9 -28.9°
Sets 21:04:25 0° 346° (NNW) 3,246 6.7 -29.2°
